BREEZE-KM DEB, 41723

Orbit data source: Space-Track

BREEZE-KM DEB, 41723 is space debris in LEO originally from a launch on Tue, 31 Mar 2015 UTC launched from the Plesetsk Missile And Space Complex (PKMTR). Debris objects in space refer to the collection of defunct objects orbiting the Earth. Examples of debris include non-operational satellites, rocket bodies, and fragments generated from explosions, collisions, or faulty payload assembly.

Loading next visibility...
Identifier
41723, 2015-020L
Orbit
LEO
Country
Flag of CISCIS
Related business
Manufacturer
Khrunichev
Mission
Spacecraft
Bus & Motor
Unknown
Mass
Unknown
Launch date (UTC)
2015-03-31 (11 years ago)
Launch vehicle
Unknown
Launch site
Plesetsk Missile And Space Complex (PKMTR)
Object type
Payload
Rocket body
Debris
Shape & HBR
Unknown shape, 0.1 m
Radar Cross Section
Small (<0.1 m²)

Expand to show TLE details & history
Last TLE update: 4 weeks ago

TLE from 4 weeks ago
0 BREEZE-KM DEB
1 41723U 15020L   25327.19440114  .00000337  00000-0  10730-2 0  9994
2 41723  82.4854 289.2006 0222745 356.6060   3.3525 12.92839042472714
Epoch: 2025-11-23T04:39Z
TLE epoch observation values (Epoch: 2025-11-23T04:39:56.258Z)
Latitude
0.00003°
Longitude
156.80397°
Altitude
1,122.515 km
Speed
7.372 km/s
True Right ascension
19h 16m 48s
True Declination
0° 00' 00"
Sunlit
Object was in daylight at epoch
Visualization orbit readout
Latitude
Unknown
Longitude
Unknown
Altitude
Unknown
Speed
Unknown
Apparent Right ascension
Unknown
Apparent Declination
Unknown
Sunlit
N/A
Visualization observer readout
Local Sidereal Time
10:38:38
Azimuth
Unknown
Elevation
Unknown
Doppler factor
Unknown
Orbital elements
Apogee altitude
1,458.305 km
Perigee altitude
1,116.806 km
Semi-major axis
7,665.693 km
Eccentricity
0.02227
Inclination
82.4854°
RAAN
289.2006°
Arg. of periapsis
356.606°
True anomaly
3.50603°
Mean anomaly
3.3525°
Eccentric anomaly
3.42883°
Mean motion
3.23382 °/min
Orbital period
111.32 mins
BSTAR
0.001073
Loading maneuver chart data...
Computing Atmospheric mass density...
Loading historical data...
Loading historical data...
Loading historical data...
Loading historical data...
Loading historical data...
Loading historical data...
Loading historical data...

Documentation

Showing up to 5 results
|